FENGYUN 1C DEB

Satellite information

Favourite Embed

Satellite Type and Status

DEBRISIN ORBIT

Key statistics

Satellite FENGYUN 1C DEB at a glance.

Uptime

9557

Days in orbit

Revolutions

≈ 13.6

Per day

Orbit

SSO

Sun Synchronous Orbit

Inclination

99.3

Latest

Satellite identification and parameters

Extended collection of information and parameters for FENGYUN 1C DEB.

Object identification

Identified? True

Debris? True

Object name: FENGYUN 1C DEB

International designator: 1999-025EXN

Object number (NORAD): 41008

Object ID (CCSDS): 41008

Country: PEOPLES REPUBLIC OF CHINA (PRC)

Current information (Y/N): Y

RCS size: SMALL

Orbital parameters

Period: 105.845 minutes

Inclination: 99.2933 deg

SMA: 7412.092 km

Apoapsis: 1407.139 km

Periapsis: 660.776 km

RAAN: 320.0483 deg

Eccentricy: 0.0503476

Argument of periapsis: 277.472 deg

Mean anomaly: 76.9512 deg

Mean motion: 13.60477982 rev/day

Mean motion (dot): 0.00000528 rev/day2

B* drag term: 0.00032906 1/REarth

Two-line elements (TLE)

Creation date: June 9, 2025, 4:21 a.m.

Reference frame: TEME

Reference center: EARTH

Epoch: June 8, 2025, 4:58 p.m. UTC

TLE line 0: 0 FENGYUN 1C DEB

TLE line 1: 1 41008U 99025EXN 25159.70733554 .00000528 00000-0 32906-3 0 9992

TLE line 2: 2 41008 99.2933 320.0483 0503476 277.4720 76.9512 13.60477982539019

Live tracking on map

Real-time ground track for satellite FENGYUN 1C DEB.

In-orbit conjunctions

A list of the most updated potential collisions computed for object FENGYUN 1C DEB.

Target Orbit TCA Probability of collision Miss distance Type
FENGYUN 1C DEB SSO 2025-06-15 07:38:34 0.0001242101 63.0 (m) DEBRIS
COSMOS 2303 LEO 2024-12-16 23:50:51 0.0001911644 158.0 (m) PAYLOAD

Associated space launch

Chinese polar orbiting meteorological satellite

FENGYUN 1C DEB was lifted into orbit during the mission ‘Long March 4B | Feng Yun 1C’, on board a Long March 4B space rocket.

The launch took place on May 10, 1999, 1:33 a.m. from Launch Complex 7.

For more information about the launch, click the button.

Launch to space Long March 4B | Feng Yun 1C
Long March 4B | Feng Yun 1C

Agency: N/A

Status: Launch Successful

Launch date: May 10, 1999, 1:33 a.m. UTC

Rocket: Long March 4B

Launch pad: Launch Complex 7

Location: Taiyuan Satellite Launch Center, People's Republic of China

...

Latest news about this satellite

There are no fresh news available about this satellite. Check back as we update our databases every day.


Newsletter sign-up

Weekly statistics, charts and insights to help you stay on top of the space industry.